Wind_Speed
28 29 29 30 30 31 31 32 33 33 34 35 35 36 37 38 39 39 39 39 39 39 39 39 39 40 40 41 41 42 42 43 42 42 41 42 42 41 41 41 40 40 40
29 29 30 30 30 31 32 33 33 34 35 36 36 37 38 39 39 39 38 38 39 39 39 39 40 40 41 41 42 43 43 43 43 43 43 44 43 43 43 42 43 42 42
30 30 30 31 32 32 33 34 34 35 36 37 37 38 38 38 39 38 38 39 39 39 39 40 40 42 42 42 43 44 44 43 45 44 44 45 45 45 44 44 44 43 43
31 31 31 32 33 33 34 34 35 36 36 37 37 37 37 37 38 38 38 38 39 39 39 40 41 42 42 43 44 44 45 45 45 46 46 45 45 46 45 45 45 46 46
32 32 32 33 34 34 34 34 35 35 36 36 36 36 37 37 38 38 38 39 39 39 40 40 41 41 42 42 43 44 44 45 45 46 45 45 46 46 46 46 46 47 47
32 33 33 34 34 34 34 34 35 36 36 36 36 36 36 37 38 39 39 39 40 40 40 40 40 41 42 42 44 44 44 44 44 44 44 45 46 46 46 47 47 47 47
33 33 33 34 34 34 35 35 36 36 36 36 36 36 36 38 39 39 39 40 40 40 40 41 41 42 42 42 43 44 44 43 42 43 45 46 47 48 47 45 47 47 47
33 33 34 34 34 35 35 36 36 36 36 36 36 36 37 38 39 39 39 40 40 40 40 41 41 41 42 42 42 42 42 43 43 43 44 45 46 47 47 47 48 49 48
33 33 34 34 34 35 35 35 35 35 36 36 36 37 37 37 37 37 38 39 39 40 40 40 40 40 40 40 40 40 41 42 42 43 43 45 45 45 45 46 47 47 48
33 33 33 34 34 34 34 35 35 35 35 36 37 37 37 37 37 36 36 37 38 38 39 39 39 39 39 39 39 40 40 40 41 42 42 43 44 44 46 46 46 47 48
33 33 33 34 34 34 35 34 34 34 35 36 36 36 36 36 37 36 35 35 36 37 38 38 38 38 38 38 39 40 40 40 41 41 42 43 44 45 46 45 45 45 46
33 33 34 34 34 34 34 34 35 35 35 35 35 35 36 36 36 37 36 35 35 35 36 37 37 37 37 38 38 39 39 38 39 40 42 43 43 44 44 44 45 45 46
34 34 34 34 35 35 34 34 35 35 34 34 34 35 35 36 36 37 37 36 36 35 36 36 36 37 37 37 38 38 38 38 38 39 41 42 42 42 42 43 43 44 43
34 34 34 35 35 35 35 34 35 34 34 33 34 34 35 35 36 37 37 37 37 36 35 35 36 36 37 37 36 36 37 38 38 37 37 38 39 40 40 41 41 41 41
34 34 34 34 34 34 34 34 34 34 34 34 34 34 34 35 36 37 37 37 37 37 35 35 35 35 35 35 34 34 36 37 37 37 36 36 36 37 39 39 39 38 37
34 34 33 33 34 34 34 34 33 33 34 34 34 34 34 34 35 36 35 36 36 36 35 34 33 33 33 33 34 34 34 34 34 33 34 34 34 35 36 36 36 35 35
33 33 33 33 33 33 34 34 33 33 34 34 34 34 34 34 34 34 35 35 35 35 35 33 33 33 33 33 33 32 32 31 31 32 33 33 32 32 32 32 32 33 33
33 33 33 33 33 33 34 34 33 33 33 33 34 34 34 34 34 33 34 34 34 34 35 34 33 32 33 32 30 30 30 29 29 30 30 31 31 31 31 30 31 31 31
33 33 33 33 33 34 34 34 34 33 33 33 33 33 33 33 33 33 33 33 33 33 34 34 32 31 31 30 29 28 28 28 28 28 29 30 30 30 29 29 29 30 31
34 33 33 32 32 33 33 34 33 32 32 32 32 32 32 32 33 33 33 33 33 33 33 32 31 30 28 27 26 25 26 27 27 27 27 28 29 29 28 29 29 30 30
34 34 33 32 32 32 32 33 32 32 32 31 31 31 31 32 32 32 32 32 32 32 30 29 28 28 27 26 25 25 25 25 25 25 26 27 28 28 27 28 28 29 29
34 34 33 32 32 32 31 31 31 31 31 31 30 30 30 31 31 31 32 32 31 30 29 28 26 25 24 24 24 24 24 24 23 23 24 26 26 26 26 26 27 27 28
34 34 33 32 31 31 30 30 31 31 31 30 30 30 30 30 30 31 31 30 29 29 27 26 24 22 22 23 23 24 23 22 23 24 25 25 26 27 26 25 26 27 26
32 32 32 31 31 30 30 30 30 30 30 30 30 30 30 30 30 30 29 28 27 26 25 23 22 21 22 22 23 23 22 22 24 25 25 25 26 26 26 25 24 25 25
30 30 30 30 30 30 30 29 29 29 29 29 29 29 29 29 29 28 26 25 24 24 23 22 22 21 21 21 22 22 22 22 24 25 25 26 26 27 26 25 25 25 25
29 28 28 28 28 28 28 28 29 29 29 29 29 28 27 27 26 25 24 23 23 22 22 22 22 22 22 22 21 20 21 22 24 25 26 26 27 27 26 25 25 25 25
Wind_Direction
270 273 275 277 278 279 280 281 283 284 285 285 286 287 288 288 288 288 288 286 285 284 283 282 281 280 279 278 277 276 276 276 277 277 277 276 276 276 276 276 276 276 275
271 273 275 277 279 280 281 283 284 284 285 286 286 287 288 289 289 288 287 286 286 284 283 282 281 280 279 279 278 277 276 276 277 276 276 277 276 276 276 276 276 275 275
271 274 276 278 279 280 282 283 284 285 286 287 287 287 288 289 289 288 288 287 286 285 283 281 280 280 280 279 278 277 276 276 276 276 276 276 276 276 276 275 275 275 275
272 274 276 278 279 280 282 283 284 286 286 287 288 288 288 289 289 289 289 289 287 286 285 284 282 281 280 279 278 277 276 276 276 275 275 275 275 276 276 275 275 276 276
271 273 276 278 280 281 283 284 285 286 287 287 288 288 288 289 289 290 290 289 289 287 286 286 285 283 282 280 278 277 276 275 276 275 275 274 275 275 274 275 276 276 275
272 274 276 279 280 281 282 284 286 287 287 288 288 288 289 289 290 290 290 290 290 288 288 287 286 285 284 282 280 278 276 276 276 275 276 275 276 277 276 276 276 276 275
271 274 277 279 280 281 282 284 285 287 287 287 287 288 289 290 290 290 290 291 291 290 289 289 288 287 287 285 282 280 277 276 276 276 276 276 276 277 276 277 277 277 276
273 275 277 279 280 281 282 284 285 286 287 287 288 288 289 290 291 291 292 292 292 292 291 290 290 289 289 287 285 283 280 277 277 276 276 276 277 276 275 276 277 277 275
274 276 278 279 280 281 283 284 285 286 287 288 289 290 290 290 291 292 293 294 293 293 293 292 292 291 290 289 287 285 283 279 278 277 277 276 278 277 277 278 277 276 276
275 277 279 280 280 282 283 284 285 286 287 288 289 290 291 293 293 294 294 294 295 294 294 293 293 292 290 289 288 288 285 281 280 278 278 277 277 276 279 279 278 277 278
275 278 280 280 281 282 283 284 285 286 288 289 290 291 293 294 295 295 296 296 296 296 296 295 294 293 292 291 290 289 288 283 280 280 279 278 277 278 277 278 280 279 279
275 278 280 281 281 282 282 283 284 286 288 289 291 291 293 294 295 296 297 298 298 298 298 297 296 295 294 293 293 291 291 286 283 282 280 278 277 277 277 279 281 280 280
275 277 279 280 280 281 282 282 284 286 288 289 290 292 294 295 296 298 298 298 298 300 299 298 297 296 295 294 293 292 290 288 288 287 285 282 279 279 280 282 283 282 281
275 277 279 279 279 280 280 282 283 285 287 289 291 292 294 295 296 298 298 298 299 301 300 298 296 296 296 296 295 294 291 289 290 291 290 288 284 284 284 285 285 284 283
275 276 278 279 279 279 280 282 283 285 286 289 291 293 294 296 297 298 299 299 300 302 301 299 297 296 297 298 297 296 294 292 291 290 290 291 289 288 287 287 287 286 286
275 276 278 279 279 280 282 283 283 284 286 289 291 293 294 297 298 299 299 301 302 303 302 301 300 298 298 299 297 298 297 297 295 292 291 293 293 292 291 290 289 288 289
274 275 277 279 280 280 281 283 283 285 286 288 290 292 294 297 298 300 301 301 302 302 303 303 301 300 299 298 298 299 299 299 297 295 293 294 295 297 297 294 291 291 291
274 275 276 279 280 280 280 282 283 285 287 288 290 291 293 295 297 299 301 303 303 303 303 302 301 300 300 298 298 297 298 299 299 298 296 296 299 301 300 296 295 295 295
273 275 276 278 280 281 281 281 282 284 286 288 291 292 293 295 296 298 301 303 303 304 304 303 300 299 300 299 298 297 299 301 301 300 300 301 304 304 301 301 301 300 298
272 274 275 278 280 282 281 281 281 283 285 288 291 293 293 294 296 298 300 301 303 304 304 303 300 299 299 302 301 299 299 302 302 303 305 306 306 306 304 303 303 302 300
271 272 275 277 280 282 282 281 281 282 285 288 291 293 293 294 296 298 300 301 303 303 303 303 302 300 299 301 300 300 301 301 303 307 309 309 309 309 306 303 302 302 302
270 272 274 276 279 281 281 281 280 282 285 288 290 291 293 294 295 298 301 302 303 304 304 303 302 300 300 300 301 301 301 303 304 307 309 311 312 312 309 307 306 305 305
270 272 274 275 277 279 281 282 281 281 284 287 289 290 292 293 294 297 299 301 303 306 305 305 303 300 300 299 300 301 302 305 309 309 310 311 312 313 313 313 311 309 309
270 271 272 274 276 278 279 280 282 282 283 286 288 289 291 293 294 295 298 300 303 304 304 305 304 303 302 301 302 303 303 306 310 311 312 314 315 315 314 314 313 312 311
270 271 272 274 276 277 277 278 280 282 283 285 288 290 292 293 294 295 297 299 301 302 304 305 304 305 306 304 306 307 307 309 311 312 312 314 315 316 315 315 314 313 312
268 270 272 274 276 277 277 278 280 282 283 284 287 289 292 295 294 293 295 297 299 301 304 306 306 306 307 306 307 307 307 310 312 313 313 313 314 314 314 313 314 314 312
Height
5813 5813 5813 5813 5812 5811 5810 5809 5808 5806 5805 5804 5802 5800 5798 5796 5794 5793 5791 5789 5788 5786 5785 5784 5783 5782 5782 5781 5781 5780 5780 5779 5778 5778 5777 5777 5776 5776 5775 5775 5774 5774 5773
5807 5807 5806 5806 5805 5804 5803 5801 5800 5799 5797 5795 5794 5792 5790 5788 5786 5783 5781 5780 5778 5777 5776 5774 5773 5772 5772 5771 5770 5770 5769 5768 5767 5767 5767 5767 5766 5765 5765 5764 5764 5763 5763
5800 5800 5799 5799 5798 5796 5795 5794 5792 5791 5789 5787 5785 5783 5781 5779 5777 5774 5772 5770 5769 5767 5766 5765 5764 5762 5761 5760 5760 5759 5758 5757 5757 5756 5756 5756 5755 5754 5754 5753 5753 5752 5752
5793 5793 5792 5791 5790 5789 5787 5786 5784 5783 5781 5779 5777 5775 5772 5770 5768 5765 5763 5761 5759 5758 5756 5755 5753 5752 5751 5750 5748 5748 5747 5746 5745 5745 5745 5744 5743 5743 5742 5742 5741 5741 5740
5786 5785 5784 5783 5782 5781 5779 5778 5776 5774 5772 5771 5769 5766 5764 5762 5759 5757 5754 5752 5750 5748 5746 5745 5743 5741 5740 5739 5737 5736 5735 5735 5734 5733 5732 5732 5731 5731 5730 5729 5729 5728 5727
5778 5778 5777 5775 5774 5773 5772 5770 5768 5766 5764 5763 5761 5758 5756 5753 5751 5748 5745 5743 5740 5738 5736 5734 5733 5731 5729 5727 5726 5724 5724 5723 5721 5721 5720 5719 5719 5718 5717 5717 5716 5715 5714
5771 5770 5769 5768 5766 5765 5764 5762 5760 5758 5756 5754 5753 5751 5748 5745 5742 5739 5736 5733 5731 5728 5726 5724 5722 5720 5718 5716 5714 5713 5712 5711 5710 5710 5709 5708 5708 5707 5705 5704 5704 5702 5701
5763 5763 5761 5760 5759 5757 5756 5754 5752 5750 5748 5746 5744 5742 5740 5738 5734 5731 5727 5724 5721 5719 5716 5714 5712 5709 5707 5705 5702 5701 5700 5700 5699 5698 5698 5696 5695 5694 5693 5692 5691 5689 5688
5756 5755 5753 5752 5751 5749 5748 5746 5744 5742 5740 5737 5735 5733 5730 5728 5726 5723 5719 5715 5712 5709 5706 5704 5701 5699 5696 5694 5692 5691 5689 5688 5687 5687 5686 5685 5684 5682 5681 5679 5679 5677 5676
5748 5747 5746 5744 5743 5741 5739 5737 5735 5733 5731 5729 5726 5723 5721 5718 5716 5715 5712 5707 5703 5700 5697 5694 5692 5689 5686 5684 5682 5680 5678 5677 5676 5675 5674 5673 5672 5670 5669 5667 5666 5665 5663
5740 5739 5738 5736 5734 5733 5731 5729 5727 5725 5723 5720 5718 5715 5713 5710 5707 5704 5703 5700 5696 5692 5689 5685 5682 5679 5676 5674 5672 5670 5667 5665 5664 5663 5662 5661 5660 5658 5657 5655 5654 5652 5650
5732 5731 5729 5728 5726 5724 5723 5721 5719 5717 5715 5712 5709 5707 5704 5702 5698 5695 5693 5691 5688 5684 5680 5676 5673 5670 5667 5664 5662 5659 5657 5654 5653 5652 5651 5649 5648 5647 5645 5643 5641 5639 5638
5724 5723 5721 5719 5718 5716 5714 5712 5710 5708 5706 5704 5701 5699 5696 5693 5690 5687 5684 5681 5679 5676 5672 5668 5664 5660 5657 5655 5652 5650 5647 5644 5643 5641 5639 5637 5636 5634 5633 5631 5629 5627 5625
5716 5714 5713 5711 5709 5707 5706 5704 5702 5700 5698 5696 5694 5691 5688 5685 5682 5678 5675 5672 5670 5668 5664 5660 5655 5652 5648 5645 5643 5640 5637 5635 5633 5631 5628 5626 5624 5622 5621 5619 5617 5615 5613
5707 5706 5704 5702 5700 5699 5697 5696 5694 5692 5690 5688 5686 5683 5680 5677 5674 5670 5667 5663 5660 5657 5655 5651 5647 5643 5639 5636 5633 5630 5628 5626 5624 5621 5619 5616 5613 5611 5609 5607 5605 5603 5601
5698 5697 5696 5694 5692 5691 5689 5688 5686 5684 5682 5680 5678 5675 5673 5670 5666 5662 5659 5655 5651 5648 5645 5642 5638 5634 5631 5628 5625 5622 5620 5617 5614 5612 5610 5607 5605 5602 5599 5596 5594 5592 5591
5690 5689 5688 5686 5684 5683 5681 5680 5678 5676 5674 5672 5670 5668 5665 5662 5658 5655 5651 5648 5644 5640 5637 5634 5631 5627 5624 5621 5618 5615 5612 5609 5606 5604 5602 5599 5597 5594 5591 5588 5585 5583 5582
5682 5681 5679 5678 5676 5675 5673 5671 5670 5668 5666 5664 5662 5659 5657 5654 5651 5648 5644 5641 5637 5633 5629 5627 5624 5620 5617 5614 5611 5608 5605 5603 5600 5597 5595 5592 5589 5586 5583 5580 5578 5576 5573
5673 5672 5671 5669 5668 5666 5664 5663 5661 5659 5658 5656 5654 5651 5649 5646 5644 5641 5637 5634 5630 5626 5622 5619 5616 5613 5610 5607 5605 5602 5599 5597 5594 5591 5589 5586 5583 5580 5576 5573 5571 5568 5566
5664 5663 5662 5661 5659 5657 5655 5654 5652 5651 5649 5648 5646 5643 5641 5639 5636 5633 5630 5627 5623 5619 5615 5612 5609 5606 5604 5601 5599 5597 5595 5592 5589 5586 5584 5581 5577 5574 5570 5567 5564 5561 5559
5655 5654 5653 5652 5650 5649 5647 5645 5644 5643 5642 5640 5638 5636 5634 5631 5629 5626 5623 5620 5616 5612 5609 5605 5603 5600 5598 5596 5594 5592 5589 5587 5585 5582 5580 5576 5572 5569 5565 5562 5558 5555 5552
5647 5646 5645 5643 5642 5640 5638 5637 5636 5635 5634 5633 5631 5629 5627 5624 5622 5619 5616 5613 5609 5606 5603 5600 5597 5595 5593 5591 5589 5587 5585 5583 5581 5579 5575 5572 5568 5564 5560 5556 5552 5549 5546
5638 5637 5636 5635 5634 5632 5630 5629 5628 5627 5626 5625 5624 5622 5620 5618 5615 5613 5610 5607 5603 5599 5596 5593 5591 5590 5588 5586 5584 5582 5580 5578 5576 5574 5571 5568 5564 5560 5555 5551 5547 5543 5540
5629 5629 5628 5627 5626 5625 5623 5622 5621 5620 5619 5618 5616 5615 5613 5611 5608 5606 5604 5601 5598 5594 5591 5589 5587 5585 5583 5581 5579 5578 5575 5574 5572 5569 5566 5563 5559 5555 5551 5546 5542 5539 5535
5621 5621 5620 5619 5618 5617 5615 5614 5613 5612 5611 5610 5609 5608 5606 5604 5602 5600 5598 5596 5593 5590 5587 5585 5583 5581 5579 5577 5575 5573 5571 5570 5568 5565 5561 5558 5555 5551 5547 5542 5538 5534 5531
5613 5613 5612 5611 5610 5609 5608 5607 5606 5605 5604 5603 5602 5601 5599 5597 5595 5594 5592 5590 5588 5586 5584 5581 5579 5577 5575 5573 5571 5569 5567 5565 5563 5560 5557 5553 5549 5545 5542 5538 5534 5530 5526